GW0270 Weather Reports


Display with metric or nautical units.
time (UTC)temp
F
wind
direction
speed
MPH
gust
MPH
rain 1hr
in
rain 24hr
in
rain mn
in
humidity
%
barometer
mb
20260510160513 58 0 2.0 7.0 0.00 0.26 0.00 93 1010.9
20260510160032 57 0 0.0 0.0 0.00 0.26 0.00 94 1010.9
20260510155516 57 0 0.0 4.0 0.00 0.32 0.00 93 1011.0
20260510155010 57 0 0.0 4.0 0.00 0.32 0.00 93 1011.0
20260510154533 56 0 1.0 4.0 0.00 0.32 0.00 94 1011.0
20260510154013 56 0 0.0 2.0 0.00 0.32 0.00 94 1011.1
20260510153512 56 0 0.0 3.0 0.00 0.32 0.00 95 1011.1
20260510153030 56 0 0.0 3.0 0.00 0.32 0.00 95 1011.1
20260510152517 56 219 0.0 3.0 0.00 0.32 0.00 95 1011.2
20260510152011 56 0 0.0 3.0 0.00 0.32 0.00 96 1011.0
20260510151533 56 0 0.0 3.0 0.00 0.32 0.00 96 1010.9
20260510151013 56 0 0.0 2.0 0.00 0.32 0.00 97 1010.8
20260510150512 55 0 0.0 2.0 0.00 0.32 0.00 97 1010.8
20260510150028 55 0 0.0 2.0 0.00 0.32 0.00 97 1010.8
20260510145511 55 0 0.0 2.0 0.00 0.38 0.00 97 1010.9
20260510145010 55 0 0.0 3.0 0.00 0.38 0.00 97 1010.9
20260510144548 55 0 0.0 4.0 0.00 0.38 0.00 97 1010.8
20260510144012 55 0 0.0 4.0 0.00 0.38 0.00 97 1011.0
20260510143511 55 0 0.0 6.0 0.00 0.38 0.00 98 1010.8
20260510143030 54 0 0.0 6.0 0.00 0.38 0.00 97 1010.8
20260510142513 54 0 0.0 8.0 0.00 0.38 0.00 98 1010.8
20260510142013 54 0 0.0 8.0 0.00 0.38 0.00 98 1010.9
20260510141528 54 0 0.0 3.0 0.00 0.38 0.00 98 1010.7
20260510141013 54 0 0.0 2.0 0.00 0.38 0.00 98 1010.7
20260510140512 54 0 0.0 2.0 0.00 0.38 0.00 98 1010.8
20260510140028 53 0 0.0 1.0 0.00 0.38 0.00 98 1010.8
20260510135514 53 0 0.0 0.0 0.00 0.39 0.00 98 1010.7
20260510135011 53 0 0.0 0.0 0.00 0.39 0.00 98 1010.7
20260510134530 53 0 0.0 0.0 0.00 0.39 0.00 98 1010.8
20260510134011 53 0 0.0 1.0 0.00 0.39 0.00 98 1010.7
20260510133510 53 0 0.0 1.0 0.00 0.39 0.00 98 1010.8
20260510133029 53 0 0.0 4.0 0.00 0.39 0.00 98 1010.8
20260510132512 53 0 0.0 4.0 0.00 0.39 0.00 97 1010.9
20260510132013 53 0 0.0 4.0 0.00 0.39 0.00 97 1011.1
20260510131528 53 0 0.0 5.0 0.00 0.39 0.00 98 1011.0
20260510131012 53 0 0.0 6.0 0.00 0.39 0.00 98 1011.0
20260510130512 53 0 0.0 6.0 0.00 0.39 0.00 98 1011.0
20260510130029 53 0 0.0 4.0 0.00 0.39 0.00 98 1010.7
20260510125512 53 0 0.0 3.0 0.00 0.39 0.00 98 1010.6
20260510125011 52 0 0.0 4.0 0.00 0.39 0.00 98 1010.7
20260510124532 52 0 0.0 4.0 0.00 0.39 0.00 98 1010.7
20260510124011 52 0 0.0 4.0 0.00 0.39 0.00 98 1010.8
20260510123513 51 0 0.0 4.0 0.00 0.39 0.00 98 1010.9
20260510123030 51 223 0.0 4.0 0.00 0.39 0.00 98 1010.8
20260510122511 51 0 0.0 10.0 0.00 0.39 0.00 98 1010.8
20260510122010 51 0 0.0 10.0 0.00 0.39 0.00 98 1010.9
20260510121530 51 263 1.0 10.0 0.00 0.39 0.00 98 1010.8
20260510121010 51 0 0.0 1.0 0.00 0.39 0.00 97 1010.8
20260510120510 50 0 0.0 3.0 0.00 0.39 0.00 97 1010.7
20260510120038 50 0 0.0 4.0 0.00 0.39 0.00 98 1010.7
20260510115515 50 0 0.0 5.0 0.00 0.39 0.00 98 1010.7
20260510115010 50 0 0.0 5.0 0.00 0.39 0.00 97 1010.8
20260510114529 50 289 0.0 5.0 0.00 0.39 0.00 97 1010.7
20260510114009 50 0 0.0 0.0 0.00 0.39 0.00 97 1010.8
20260510113511 50 0 0.0 0.0 0.00 0.39 0.00 97 1010.6
20260510113028 50 0 0.0 0.0 0.00 0.39 0.00 97 1010.6
20260510112515 50 0 0.0 0.0 0.00 0.39 0.00 97 1010.5
20260510112012 50 0 0.0 0.0 0.00 0.39 0.00 97 1010.5
20260510111527 49 0 0.0 2.0 0.00 0.39 0.00 97 1010.4
20260510111012 49 0 0.0 4.0 0.00 0.39 0.00 97 1010.6
20260510110510 49 0 0.0 4.0 0.00 0.39 0.00 97 1010.6
20260510110031 49 0 0.0 4.0 0.00 0.39 0.00 97 1010.5
20260510105514 49 0 0.0 2.0 0.00 0.39 0.00 97 1010.3
20260510105013 49 0 0.0 1.0 0.00 0.39 0.00 97 1010.2
20260510104529 49 0 0.0 1.0 0.00 0.39 0.00 97 1010.0
20260510104012 49 0 0.0 1.0 0.00 0.39 0.00 97 1010.1
20260510103512 49 0 0.0 2.0 0.00 0.39 0.00 97 1010.0
20260510103027 49 0 0.0 4.0 0.00 0.39 0.00 97 1009.7
20260510102511 49 0 0.0 8.0 0.00 0.39 0.00 97 1009.6
20260510102011 49 0 2.0 8.0 0.00 0.39 0.00 97 1009.6
20260510101527 49 0 0.0 6.0 0.00 0.39 0.00 97 1009.6
20260510101011 49 0 0.0 6.0 0.00 0.39 0.00 97 1009.2
20260510100511 49 0 0.0 6.0 0.00 0.39 0.00 97 1009.0
20260510100030 49 209 0.0 4.0 0.00 0.39 0.00 97 1008.9
20260510095513 49 0 0.0 3.0 0.00 0.39 0.00 97 1009.0
20260510095013 49 0 0.0 3.0 0.00 0.39 0.00 97 1008.8
20260510094534 49 261 0.0 3.0 0.00 0.39 0.00 97 1008.9
20260510094013 49 0 0.0 1.0 0.00 0.39 0.00 97 1009.0
20260510093513 49 0 0.0 1.0 0.00 0.39 0.00 97 1009.0
20260510093028 49 0 0.0 3.0 0.00 0.39 0.00 97 1009.0
20260510092514 49 0 0.0 5.0 0.00 0.39 0.00 97 1009.0
20260510092012 49 0 0.0 5.0 0.00 0.39 0.00 97 1009.0
20260510091529 49 0 0.0 2.0 0.00 0.39 0.00 97 1008.7
20260510091012 49 0 0.0 2.0 0.00 0.39 0.00 97 1008.5
20260510090510 49 0 0.0 1.0 0.00 0.39 0.00 97 1009.0
20260510090028 49 0 0.0 3.0 0.00 0.39 0.00 97 1008.9
20260510085513 49 0 0.0 4.0 0.00 0.39 0.00 97 1008.8
20260510085013 49 0 0.0 4.0 0.00 0.39 0.00 97 1008.6
20260510084529 49 0 0.0 2.0 0.00 0.39 0.00 97 1008.9
20260510084013 49 0 0.0 3.0 0.00 0.39 0.00 97 1009.2
20260510083514 49 0 0.0 3.0 0.00 0.39 0.00 97 1009.2
20260510083029 49 0 0.0 0.0 0.00 0.39 0.00 97 1009.3
20260510082512 49 0 0.0 0.0 0.00 0.39 0.00 97 1009.3
20260510082014 49 0 0.0 0.0 0.00 0.39 0.00 97 1009.5
20260510081528 49 0 0.0 0.0 0.00 0.39 0.00 97 1009.4
20260510081010 49 0 0.0 0.0 0.00 0.39 0.00 97 1009.1
20260510080510 49 0 0.0 0.0 0.00 0.39 0.00 97 1009.2
20260510080032 49 0 0.0 0.0 0.00 0.39 0.00 97 1009.2
20260510075512 49 0 0.0 0.0 0.00 0.39 0.00 97 1009.3
20260510075010 49 0 0.0 0.0 0.00 0.39 0.00 97 1009.4
20260510074533 48 0 0.0 0.0 0.00 0.39 0.00 97 1009.3
20260510074013 48 0 0.0 0.0 0.00 0.39 0.00 97 1009.3
20260510073513 48 0 0.0 0.0 0.00 0.39 0.00 97 1009.2
20260510073027 48 0 0.0 0.0 0.00 0.39 0.00 97 1009.3
20260510072510 48 0 0.0 0.0 0.00 0.39 0.00 97 1009.3
20260510072011 48 0 0.0 0.0 0.00 0.39 0.00 97 1009.2
20260510071531 48 0 0.0 0.0 0.00 0.39 0.00 97 1009.3
20260510071011 48 0 0.0 0.0 0.00 0.39 0.00 96 1009.1
20260510070511 48 0 0.0 0.0 0.00 0.39 0.00 96 1009.1
20260510070030 48 0 0.0 0.0 0.00 0.39 0.00 96 1009.1
20260510065510 48 0 0.0 0.0 0.00 0.39 0.00 96 1009.2
20260510065011 48 0 0.0 0.0 0.00 0.39 0.00 97 1009.2
20260510064531 48 0 0.0 0.0 0.00 0.39 0.00 97 1009.2
20260510064015 48 0 0.0 0.0 0.00 0.39 0.00 96 1009.2
20260510063512 48 0 0.0 0.0 0.00 0.39 0.00 96 1009.4
20260510063030 48 0 0.0 0.0 0.00 0.39 0.00 96 1009.4
20260510062511 48 0 0.0 0.0 0.00 0.39 0.00 96 1009.2
20260510062009 48 0 0.0 1.0 0.00 0.39 0.00 96 1009.2
20260510061536 48 0 0.0 1.0 0.00 0.39 0.00 96 1009.4
20260510061014 48 0 0.0 0.0 0.00 0.39 0.00 96 1009.3
20260510060514 48 0 0.0 0.0 0.00 0.39 0.00 96 1009.4
20260510060044 48 0 0.0 0.0 0.00 0.39 0.00 96 1009.4
20260510055512 48 0 0.0 0.0 0.00 0.39 0.00 96 1009.3
20260510055014 48 0 0.0 0.0 0.00 0.39 0.00 96 1009.3
20260510054531 48 0 0.0 0.0 0.00 0.39 0.00 96 1009.4
20260510054013 48 0 0.0 0.0 0.00 0.39 0.00 96 1009.4
20260510053513 48 0 0.0 0.0 0.00 0.39 0.00 96 1009.5
20260510053030 48 0 0.0 0.0 0.00 0.39 0.00 96 1009.6
20260510052510 48 0 0.0 1.0 0.00 0.39 0.00 96 1009.6
20260510052011 48 0 0.0 1.0 0.00 0.39 0.00 96 1009.6
20260510051528 48 0 0.0 0.0 0.00 0.39 0.00 96 1009.6
20260510051013 48 0 0.0 0.0 0.00 0.39 0.00 96 1009.6
20260510050513 48 0 0.0 0.0 0.00 0.39 0.00 96 1009.6
20260510050030 48 0 0.0 4.0 0.00 0.39 0.00 96 1009.6
20260510045512 48 0 0.0 4.0 0.00 0.39 0.00 96 1009.7
20260510045014 48 0 0.0 4.0 0.00 0.39 0.00 96 1009.7
20260510044528 48 0 0.0 0.0 0.00 0.39 0.00 96 1009.8
20260510044014 48 0 0.0 0.0 0.00 0.39 0.00 96 1009.8
20260510043513 48 0 0.0 0.0 0.00 0.39 0.00 96 1009.8
20260510043030 48 0 0.0 0.0 0.00 0.39 0.00 96 1009.9
20260510042511 48 0 0.0 0.0 0.00 0.39 0.00 96 1009.8
20260510042010 48 0 0.0 0.0 0.00 0.39 0.00 96 1009.7
20260510041531 48 0 0.0 0.0 0.00 0.39 0.00 96 1009.8
20260510041014 48 0 0.0 0.0 0.00 0.39 0.00 96 1010.0
20260510040514 48 0 0.0 0.0 0.00 0.39 0.00 96 1009.8
20260510040032 48 0 0.0 0.0 0.00 0.39 0.00 96 1009.9
20260510035511 48 0 0.0 0.0 0.00 0.39 0.39 96 1009.9
20260510035013 48 0 0.0 0.0 0.00 0.39 0.39 96 1010.0
20260510034530 48 0 0.0 0.0 0.00 0.39 0.39 96 1009.9
20260510034010 48 0 0.0 0.0 0.00 0.39 0.39 96 1009.9
20260510033512 48 0 0.0 0.0 0.00 0.39 0.39 96 1009.9
20260510033028 48 0 0.0 0.0 0.00 0.39 0.39 96 1009.8
20260510032515 48 0 0.0 0.0 0.00 0.39 0.39 96 1009.8
20260510032014 47 0 0.0 0.0 0.00 0.39 0.39 96 1009.8
20260510031549 47 0 0.0 0.0 0.00 0.39 0.39 96 1009.9
20260510031011 47 0 0.0 0.0 0.00 0.39 0.39 96 1009.9
20260510030512 47 0 0.0 0.0 0.00 0.39 0.39 96 1010.0
20260510030029 47 0 0.0 0.0 0.00 0.39 0.39 96 1009.8
20260510025512 47 0 0.0 0.0 0.00 0.39 0.39 96 1009.9
20260510025014 47 0 0.0 0.0 0.00 0.39 0.39 96 1010.0
20260510024535 47 0 0.0 0.0 0.00 0.39 0.39 96 1009.8
20260510024012 47 0 0.0 0.0 0.00 0.39 0.39 96 1010.0
20260510023512 47 0 0.0 0.0 0.00 0.39 0.39 96 1010.0
20260510023041 47 0 0.0 0.0 0.00 0.39 0.39 96 1010.2
20260510022511 47 0 0.0 0.0 0.00 0.39 0.39 96 1010.3
20260510022014 47 0 0.0 0.0 0.00 0.39 0.39 96 1010.2
20260510021527 47 0 0.0 0.0 0.00 0.39 0.39 96 1010.3
20260510021012 47 0 0.0 0.0 0.00 0.39 0.39 96 1010.3
20260510020511 47 0 0.0 0.0 0.00 0.39 0.39 96 1010.3
20260510020030 47 0 0.0 0.0 0.00 0.39 0.39 95 1010.2
20260510015510 47 0 0.0 0.0 0.00 0.39 0.39 96 1010.1
20260510015011 47 0 0.0 0.0 0.00 0.39 0.39 96 1010.2
20260510014528 47 0 0.0 0.0 0.00 0.39 0.39 96 1010.5
20260510014013 48 0 0.0 0.0 0.00 0.39 0.39 96 1010.3
20260510013510 48 0 0.0 0.0 0.00 0.39 0.39 96 1010.3
20260510013027 48 0 0.0 0.0 0.00 0.39 0.39 96 1010.2
20260510012513 48 0 0.0 0.0 0.00 0.39 0.39 96 1010.2
20260510012011 48 0 0.0 0.0 0.00 0.39 0.39 96 1010.2
20260510011528 48 0 0.0 0.0 0.00 0.39 0.39 96 1010.3
20260510011017 48 0 0.0 0.0 0.00 0.39 0.39 96 1010.2
20260510010512 48 0 0.0 0.0 0.00 0.39 0.39 96 1010.2
20260510010032 48 0 0.0 0.0 0.00 0.39 0.39 95 1010.3
20260510005510 48 0 0.0 0.0 0.00 0.39 0.39 95 1010.2
20260510005012 48 0 0.0 0.0 0.00 0.39 0.39 95 1010.1
20260510004532 48 0 0.0 0.0 0.00 0.39 0.39 95 1010.1
20260510004013 48 0 0.0 0.0 0.00 0.39 0.39 95 1010.0
20260510003511 48 0 0.0 0.0 0.00 0.39 0.39 95 1010.1
20260510003030 48 0 0.0 0.0 0.00 0.39 0.39 95 1010.0
20260510002514 48 0 0.0 0.0 0.00 0.39 0.39 95 1009.9
20260510002012 48 0 0.0 0.0 0.00 0.39 0.39 95 1009.9
20260510001527 48 0 0.0 0.0 0.00 0.39 0.39 95 1009.8
20260510001011 48 0 0.0 0.0 0.00 0.39 0.39 95 1009.8
20260510000514 48 0 0.0 0.0 0.00 0.39 0.39 95 1009.8
20260510000028 48 0 0.0 0.0 0.00 0.39 0.39 95 1009.7
20260509235510 48 0 0.0 0.0 0.00 0.39 0.39 95 1009.7
20260509235013 48 0 0.0 0.0 0.00 0.39 0.39 95 1009.7
20260509234530 48 0 0.0 0.0 0.00 0.39 0.39 95 1009.6
20260509234013 48 0 0.0 0.0 0.00 0.39 0.39 95 1009.6
20260509233513 48 0 0.0 0.0 0.00 0.39 0.39 95 1009.7
20260509233030 48 0 0.0 0.0 0.00 0.39 0.39 95 1009.5
20260509232513 48 0 0.0 0.0 0.00 0.39 0.39 95 1009.6
20260509232011 48 0 0.0 0.0 0.00 0.39 0.39 95 1009.5
20260509231530 48 0 0.0 0.0 0.00 0.39 0.39 95 1009.7
20260509231010 48 0 0.0 0.0 0.00 0.39 0.39 95 1009.8
20260509230511 48 0 0.0 0.0 0.00 0.39 0.39 95 1009.7
20260509230028 48 0 0.0 0.0 0.00 0.39 0.39 95 1009.7
20260509225514 48 0 0.0 0.0 0.00 0.39 0.39 95 1009.7
20260509225012 48 0 0.0 0.0 0.00 0.39 0.39 95 1009.7
20260509224530 48 0 0.0 0.0 0.00 0.39 0.39 95 1009.7
20260509224010 48 0 0.0 0.0 0.00 0.39 0.39 95 1009.8
20260509223512 48 0 0.0 0.0 0.00 0.39 0.39 95 1009.7
20260509223030 47 0 0.0 0.0 0.00 0.39 0.39 95 1009.7
20260509222512 48 0 0.0 0.0 0.00 0.39 0.39 95 1009.7
20260509222013 48 0 0.0 0.0 0.00 0.39 0.39 95 1009.7
20260509221532 48 0 0.0 0.0 0.00 0.39 0.39 95 1009.7
20260509221011 48 0 0.0 0.0 0.00 0.39 0.39 95 1009.8
20260509220513 48 0 0.0 0.0 0.00 0.39 0.39 95 1009.8
20260509220031 47 0 0.0 0.0 0.00 0.39 0.39 95 1009.8
20260509215511 47 0 0.0 0.0 0.00 0.39 0.39 95 1009.8
20260509215013 47 0 0.0 0.0 0.00 0.39 0.39 95 1009.8
20260509214530 47 0 0.0 0.0 0.00 0.39 0.39 95 1009.9
20260509214013 47 0 0.0 0.0 0.00 0.39 0.39 95 1009.9
20260509213513 47 0 0.0 0.0 0.00 0.39 0.39 95 1010.1
20260509213030 47 0 0.0 0.0 0.00 0.39 0.39 95 1010.0
20260509212512 47 0 0.0 0.0 0.00 0.39 0.39 95 1010.2
20260509212013 47 0 0.0 0.0 0.01 0.39 0.39 95 1010.1
20260509211549 47 0 0.0 0.0 0.01 0.39 0.39 95 1010.1
20260509211010 47 0 0.0 0.0 0.01 0.39 0.39 95 1010.1
20260509210512 47 0 0.0 0.0 0.02 0.39 0.39 95 1010.1
20260509210029 47 0 0.0 0.0 0.02 0.39 0.39 95 1010.2
20260509205511 47 0 0.0 1.0 0.02 0.39 0.39 95 1010.2
20260509205016 47 0 0.0 1.0 0.02 0.39 0.39 95 1010.2
20260509204529 47 0 0.0 0.0 0.02 0.39 0.39 95 1010.3
20260509204010 47 0 0.0 2.0 0.03 0.39 0.39 95 1010.3
20260509203514 47 0 0.0 2.0 0.03 0.39 0.39 95 1010.3
20260509203039 47 0 0.0 0.0 0.03 0.39 0.39 95 1010.4
20260509202513 47 0 0.0 1.0 0.04 0.39 0.39 95 1010.3
20260509202012 47 0 0.0 4.0 0.03 0.38 0.38 95 1010.3
20260509201528 47 0 0.0 4.0 0.04 0.38 0.38 94 1010.3
20260509201014 47 0 0.0 0.0 0.04 0.38 0.38 95 1010.3
20260509200509 47 0 0.0 0.0 0.04 0.37 0.37 94 1010.1
20260509200030 47 0 0.0 2.0 0.05 0.37 0.37 94 1010.2
20260509195510 47 0 0.0 2.0 0.06 0.37 0.37 94 1010.4
20260509195011 47 321 0.0 2.0 0.06 0.37 0.37 94 1010.4
20260509194529 47 0 0.0 2.0 0.07 0.37 0.37 94 1010.6
20260509194012 47 321 0.0 1.0 0.07 0.36 0.36 94 1010.6
20260509193512 47 0 0.0 1.0 0.07 0.36 0.36 94 1010.7
20260509193033 47 0 0.0 1.0 0.07 0.36 0.36 94 1010.8
20260509192513 47 0 0.0 0.0 0.07 0.35 0.35 94 1010.8
20260509192013 47 0 0.0 0.0 0.08 0.35 0.35 94 1010.8
20260509191533 47 0 0.0 0.0 0.07 0.34 0.34 94 1010.8
20260509191015 47 0 0.0 0.0 0.08 0.34 0.34 94 1010.8
20260509190511 47 0 0.0 0.0 0.07 0.33 0.33 94 1010.9
20260509190028 47 0 0.0 2.0 0.07 0.32 0.32 94 1010.9
20260509185511 47 0 0.0 2.0 0.07 0.31 0.31 94 1010.9
20260509185014 47 0 0.0 1.0 0.08 0.31 0.31 95 1011.0
20260509184528 47 0 0.0 2.0 0.07 0.30 0.30 94 1011.1
20260509184011 47 0 0.0 2.0 0.07 0.29 0.29 94 1011.2
20260509183511 46 0 0.0 0.0 0.08 0.29 0.29 94 1011.1
20260509183033 46 0 0.0 0.0 0.07 0.28 0.28 94 1011.3
20260509182514 46 0 0.0 0.0 0.08 0.28 0.28 94 1011.2
20260509182011 46 0 0.0 0.0 0.08 0.27 0.27 94 1011.3
20260509181529 46 0 0.0 0.0 0.08 0.27 0.27 94 1011.3
20260509181012 46 0 0.0 0.0 0.08 0.26 0.26 94 1011.4
20260509180512 46 0 0.0 0.0 0.09 0.26 0.26 94 1011.5
20260509180028 46 0 0.0 0.0 0.08 0.25 0.25 94 1011.5
20260509175516 46 0 0.0 0.0 0.07 0.24 0.24 94 1011.5
20260509175012 46 0 0.0 0.0 0.07 0.23 0.23 94 1011.6
20260509174530 46 0 0.0 0.0 0.06 0.22 0.22 94 1011.7
20260509174013 46 0 0.0 0.0 0.06 0.22 0.22 94 1011.6
20260509173510 46 0 0.0 0.0 0.05 0.21 0.21 94 1011.7
20260509173030 46 0 0.0 0.0 0.05 0.20 0.20 94 1011.6
20260509172510 45 0 0.0 0.0 0.05 0.20 0.20 93 1011.7
20260509172012 45 0 0.0 0.0 0.04 0.19 0.19 93 1011.7
20260509171528 45 0 0.0 0.0 0.04 0.18 0.18 93 1011.7
20260509171014 45 0 0.0 0.0 0.04 0.18 0.18 93 1011.8
20260509170512 45 0 0.0 0.0 0.03 0.17 0.17 93 1011.9
20260509170031 45 0 0.0 0.0 0.03 0.17 0.17 93 1011.8
20260509165511 45 0 0.0 0.0 0.04 0.17 0.17 93 1012.0
20260509165016 45 0 0.0 0.0 0.03 0.16 0.16 93 1011.9
20260509164529 45 0 0.0 0.0 0.03 0.16 0.16 93 1011.9
20260509164012 45 0 0.0 0.0 0.04 0.16 0.16 93 1011.9
20260509163514 45 0 0.0 0.0 0.03 0.15 0.15 93 1012.1
20260509163045 44 0 0.0 0.0 0.04 0.15 0.15 93 1012.1
20260509162515 44 0 0.0 0.0 0.04 0.15 0.15 93 1012.3
20260509162011 44 0 0.0 0.0 0.05 0.15 0.15 93 1012.3
20260509161530 44 0 0.0 0.0 0.04 0.14 0.14 93 1012.3
20260509161010 44 0 0.0 0.0 0.05 0.14 0.14 93 1012.4